Location: Newark
(36.1358°N, 115.1208°W)
Time: 06:00:48
(UTC+00:00)

Vanguard 1 Rocket - Pass Details

Date: 23 February 2020
Orbit: 650 x 4226 km, 34.3° (Epoch: 07 April)

Event Time Altitude Azimuth Distance (km) Brightness Sun altitude
Rises 06:21:01 0° 206° (SSW) 7,264 11.9 -56.4°
Enters shadow 06:23:08 - 203° (SSW) 6,771 11.7 -56.7°
Reaches altitude 10° 06:28:24 10° 192° (SSW) 5,524 - -57.5°
Maximum altitude 06:37:48 20° 153° (SSE) 3,682 - -58.7°
Drops below altitude 10° 06:44:13 10° 111° (ESE) 3,604 - -59.5°
Sets 06:47:35 0° 94° (E) 4,145 - -59.8°
